Tracking 28514 objects as of 25-Feb-2024
HD Live streaming from Space Station
objects crossing your sky now

ARIANE 1 DEB

Track ARIANE 1 DEB now!
10-day predictions


NORAD ID: 27596
Int'l Code: 1986-019VN
Perigee: 710.5 km
Apogee: 772.5 km
Inclination: 98.2 °
Period: 99.5 minutes
Semi major axis: 7112 km
RCS: 0.0098 m2 (small)
Launch date: February 22, 1986
Source: France (FR)
Launch site: FRENCH GUIANA (FRGUI)

Note: This is SATELLITE DEBRIS
Your satellite tracking list
Your tracking list is empty




NASA's NSSDC Master Catalog

Two Line Element Set (TLE):
1 27596U 86019VN  24055.91925113  .00004318  00000-0  11763-2 0  9996
2 27596  98.1754  41.8530 0043595  34.1059 355.6484 14.47332852491798
Source of the keplerian elements: AFSPC